Regional Weather Roundup
Issued by NWS

Home | Current Version | Previous Version | Text Only | Print | Product List | Glossary On
Versions: 1 2 3 4 5 6 7 8 9 10 11 12 13 14 15 16 17 18 19 20 21 22 23 24 25 26 27 28 29 30 31 32 33 34 35 36 37 38 39 40 41 42 43 44 45 46 47 48 49 50
000
ASUS43 KTOP 252159
RWRKS

WEATHER ROUNDUP FOR KANSAS
NATIONAL WEATHER SERVICE GOODLAND KS
500 PM CDT WED MAY 25 2016

NOTE:  "FAIR" INDICATES FEW OR NO CLOUDS BELOW 12,000 FEET WITH NO
SIGNIFICANT WEATHER AND/OR OBSTRUCTIONS TO VISIBILITY.

KSZ001>006-013>018-027>032-041>047-252300-
NORTHWEST KANSAS

CITY           SKY/WX    TMP DP  RH WIND       PRES   REMARKS
GOODLAND       SUNNY     79  51  37 N3        29.90F
HAYS           MOSUNNY   72  64  78 NW7       29.84S
HILL CITY      CLOUDY    74  62  66 CALM      29.86F
RUSSELL        SUNNY     79  70  74 N14       29.81F
$$

KSZ061>065-074>080-084>089-252300-
SOUTHWEST KANSAS

CITY           SKY/WX    TMP DP  RH WIND       PRES   REMARKS
DODGE CITY     SUNNY     82  66  58 N16       29.85F
ELKHART          N/A     86  34  15 SW9         N/A
GARDEN CITY    SUNNY     84  54  35 NW9       29.86F
GREAT BEND     SUNNY     84  64  51 W14       29.80S
LIBERAL        SUNNY     90  36  14 SW20G25   29.87S
$$

KSZ066>073-081>083-090>101-252300-
SOUTHEAST KANSAS

CITY           SKY/WX    TMP DP  RH WIND       PRES   REMARKS
CHANUTE        CLOUDY    81  71  71 SE14      29.87F
COFFEYVILLE    PTSUNNY   83  73  72 S14G21    29.86F
HUTCHINSON     SUNNY     90  67  46 S12       29.79F
MEDICINE LODGE   N/A     94  50  22 SW13      29.79S
NEWTON         SUNNY     84  72  65 S16         N/A
PARSONS        PTSUNNY   81  73  76 S9G20     29.88F
WICHITA INTL   MOSUNNY   89  72  56 S18       29.79F HX  96
WICHITA JABRA  MOSUNNY   87  74  64 S16       29.80F HX  95
WINFIELD       MOSUNNY   87  72  60 S17G26    29.83S
$$

KSZ007>012-019>026-033>040-048>060-102>105-252300-
NORTHEAST KANSAS

CITY           SKY/WX    TMP DP  RH WIND       PRES   REMARKS
CONCORDIA      CLOUDY    77  67  71 CALM      29.83S
EMPORIA        CLOUDY    79  70  74 SE12      29.84F
LAWRENCE       MOSUNNY   83  67  58 S15G25    29.85F
MANHATTAN      PTSUNNY   82  70  66 S14       29.81F
OLATHE IND     SUNNY     81  66  60 S15G23    29.87F
OLATHE EXE     SUNNY     80  65  59 S15       29.87F
SALINA         PTSUNNY   85  72  65 S8        29.79F
TOPEKA BILLARD   N/A     83  67  58 S16G22    29.84F
TOPEKA FORBES  MOSUNNY   82  67  60 S17G25    29.84F
$$




USA.gov is the U.S. government's official web portal to all federal, state and local government web resources and services.